Content
SEND FEEDBACK

Daily
Averages
Monthly
Summary
United States of America

LIVONIA, MICHIGAN


Home > North America > United States > Michigan
Elevation: 778 feet     Latitude: 42 13N     Longitude: 083 31W

WEATHER
 
SELECT A DAY
Number of Records: 207,726;   Date Range: 1/1/95 - 12/27/14
 
SHARE

PRINT THIS DATA

[ ← Previous Day ]
WEATHER ALMANAC - AUGUST 25, 2013
[ Next Day → ]
[ °C ]   °F
Weather ElementAverageHighLow
Temperature72.3 °F88 °F (3:53 pm)57.2 °F (6:15 am)
Dewpoint58.3 °F64 °F (9:53 pm)53.1 °F (6:53 am)
Humidity64.8 %88 % (6:15 am)34 % (5:53 pm)
Barometer30.25 in30.32 in (7:02 am)30.16 in (7:53 pm)
Wind Speed6 mph13.8 mph (12:53 pm)
Wind Gust19.6 mph (12:53 pm)
Weather ElementAverage
Visibility8.7 mi
Wind DirectionSSE (143.5 °)

Weather ElementTotal
Precipitation---
Cooling Degree Days7.6 (Base 65)
Growing Degree Days22.6 (Base 50)
Averaged from 26 records on August 25, 2013
WEATHER CONDITIONS BREAKOUT
WIND DIRECTION BREAKOUT
WEATHER BY HOUR - AUGUST 25, 2013
[ °C ]   °F
Local TimeTemperatureDewpointHumidityBarometerVisibilityWind DirectionWind SpeedGust SpeedPrecipitationEventsConditions
1:53 AM62.1 °F55.9 °F80 %30.28 in10.0 miCalmClear
2:53 AM60.1 °F55.0 °F83 %30.29 in10.0 miNNW (330°)3.5 mphClear
3:53 AM60.1 °F55.0 °F83 %30.29 in10.0 miCalmClear
4:53 AM57.9 °F54.0 °F87 %30.30 in8.0 miCalmClear
5:53 AM57.9 °F54.0 °F87 %30.30 in9.0 miCalmClear
6:15 AM57.2 °F53.6 °F88 %30.31 in1.5 miCalmHaze
6:23 AM57.2 °F53.6 °F88 %30.31 in0.5 miCalmFogFog
6:53 AM57.9 °F53.1 °F84 %30.31 in0.2 miCalmHaze
7:02 AM57.2 °F53.6 °F88 %30.32 in7.0 miCalmClear
7:53 AM61.0 °F57.0 °F87 %30.30 in9.0 miCalmClear
8:53 AM69.1 °F57.9 °F68 %30.30 in10.0 miSouth (190°)5.8 mphClear
9:53 AM73.9 °F57.9 °F57 %30.30 in10.0 miSSW (210°)9.2 mphClear
10:53 AM78.1 °F61.0 °F56 %30.29 in10.0 miSSW (210°)9.2 mphClear
11:53 AM82.0 °F60.1 °F47 %30.27 in10.0 miSW (220°)10.4 mphClear
12:53 PM84.9 °F61.0 °F44 %30.26 in10.0 miSSW (200°)13.8 mph19.6 mphClear
1:53 PM86.0 °F62.1 °F44 %30.25 in10.0 miSSW (210°)10.4 mph16.1 mphClear
2:53 PM87.1 °F62.1 °F43 %30.22 in10.0 miSSW (200°)11.5 mphClear
3:53 PM88.0 °F60.1 °F39 %30.20 in10.0 miSW (220°)10.4 mphClear
4:53 PM88.0 °F57.0 °F35 %30.18 in10.0 miSSW (210°)10.4 mphClear
5:53 PM88.0 °F55.9 °F34 %30.18 in10.0 miSW (220°)12.7 mphClear
6:53 PM86.0 °F60.1 °F41 %30.17 in10.0 miSW (230°)11.5 mphClear
7:53 PM82.0 °F63.0 °F52 %30.16 in10.0 miSW (220°)8.1 mphClear
8:53 PM78.1 °F63.0 °F60 %30.17 in10.0 miSW (230°)4.6 mphClear
9:53 PM73.9 °F64.0 °F71 %30.18 in10.0 miSSW (200°)6.9 mphClear
10:53 PM73.0 °F63.0 °F71 %30.18 in10.0 miSSW (210°)8.1 mphClear
11:53 PM73.9 °F63.0 °F68 %30.17 in10.0 miSW (220°)9.2 mphClear
Hourly data recorded from KYIP, located miles away from Livonia, Michigan







STORIES FROM OUR PARTNERS